| time (UTC) | temp F | wind direction | speed MPH | gust MPH | rain 1hr in | rain 24hr in | rain mn in | humidity % | barometer mb |
| 20260505091004 | 48 | 248 | 0.0 | 0.0 | 0.00 | 0.00 | 0.00 | 86 | 1017.4 |
| 20260505090003 | 47 | 248 | 0.0 | 1.0 | 0.00 | 0.00 | 0.00 | 86 | 1017.4 |
| 20260505085003 | 47 | 248 | 0.0 | 0.0 | 0.00 | 0.00 | 0.00 | 86 | 1017.4 |
| 20260505084003 | 47 | 248 | 0.0 | 1.0 | 0.00 | 0.00 | 0.00 | 86 | 1017.5 |
| 20260505083004 | 47 | 248 | 0.0 | 1.0 | 0.00 | 0.00 | 0.00 | 86 | 1017.5 |
| 20260505082003 | 48 | 248 | 0.0 | 1.0 | 0.00 | 0.00 | 0.00 | 86 | 1017.5 |
| 20260505081004 | 48 | 248 | 0.0 | 1.0 | 0.00 | 0.00 | 0.00 | 86 | 1017.5 |
| 20260505080003 | 48 | 248 | 0.0 | 2.0 | 0.00 | 0.00 | 0.00 | 86 | 1017.3 |
| 20260505075003 | 48 | 249 | 1.0 | 2.0 | 0.00 | 0.00 | 0.00 | 86 | 1017.4 |
| 20260505074003 | 48 | 248 | 0.0 | 0.0 | 0.00 | 0.00 | 0.00 | 86 | 1017.4 |
| 20260505073004 | 48 | 248 | 0.0 | 0.0 | 0.00 | 0.00 | 0.00 | 86 | 1017.4 |
| 20260505072004 | 48 | 248 | 0.0 | 0.0 | 0.00 | 0.00 | 0.00 | 86 | 1017.4 |
| 20260505071003 | 48 | 248 | 0.0 | 0.0 | 0.00 | 0.00 | 0.00 | 86 | 1017.4 |
| 20260505070004 | 49 | 248 | 0.0 | 0.0 | 0.00 | 0.00 | 0.00 | 86 | 1017.3 |
| 20260505065003 | 49 | 248 | 0.0 | 0.0 | 0.00 | 0.00 | 0.00 | 85 | 1017.4 |
| 20260505064003 | 49 | 248 | 0.0 | 0.0 | 0.00 | 0.00 | 0.00 | 85 | 1017.4 |
| 20260505063004 | 50 | 249 | 0.0 | 2.0 | 0.00 | 0.00 | 0.00 | 84 | 1017.4 |
| 20260505062003 | 50 | 249 | 0.0 | 0.0 | 0.00 | 0.00 | 0.00 | 84 | 1017.5 |
| 20260505061003 | 51 | 249 | 0.0 | 0.0 | 0.00 | 0.00 | 0.00 | 84 | 1017.7 |
| 20260505041004 | 51 | 248 | 0.0 | 0.0 | 0.00 | 0.00 | 0.00 | 84 | 1017.8 |
| 20260505040005 | 52 | 248 | 0.0 | 0.0 | 0.00 | 0.00 | 0.00 | 84 | 1017.8 |
| 20260505035003 | 53 | 248 | 0.0 | 0.0 | 0.00 | 0.00 | 0.00 | 83 | 1017.8 |
| 20260505034004 | 53 | 248 | 0.0 | 0.0 | 0.00 | 0.00 | 0.00 | 83 | 1017.9 |
| 20260505033004 | 53 | 248 | 0.0 | 0.0 | 0.00 | 0.00 | 0.00 | 83 | 1017.9 |
| 20260505032004 | 53 | 248 | 0.0 | 0.0 | 0.00 | 0.00 | 0.00 | 83 | 1017.9 |
| 20260505031004 | 53 | 248 | 0.0 | 0.0 | 0.00 | 0.00 | 0.00 | 83 | 1018.0 |
| 20260505015003 | 57 | 248 | 0.0 | 0.0 | 0.00 | 0.00 | 0.00 | 78 | 1017.6 |
| 20260505014004 | 58 | 248 | 0.0 | 2.0 | 0.00 | 0.00 | 0.00 | 77 | 1017.3 |
| 20260505013004 | 59 | 248 | 1.0 | 2.0 | 0.00 | 0.00 | 0.00 | 75 | 1017.1 |
| 20260505012004 | 60 | 248 | 0.0 | 2.0 | 0.00 | 0.00 | 0.00 | 74 | 1017.0 |
| 20260505011004 | 61 | 248 | 0.0 | 0.0 | 0.00 | 0.00 | 0.00 | 73 | 1017.0 |
| 20260505010002 | 62 | 248 | 0.0 | 0.0 | 0.00 | 0.00 | 0.00 | 72 | 1017.1 |
| 20260504214003 | 74 | 196 | 5.0 | 9.0 | 0.00 | 0.00 | 0.00 | 44 | 1016.7 |
| 20260504213003 | 75 | 222 | 5.0 | 9.0 | 0.00 | 0.00 | 0.00 | 45 | 1016.6 |
| 20260504212002 | 75 | 252 | 3.0 | 8.0 | 0.00 | 0.00 | 0.00 | 47 | 1016.6 |
| 20260504211002 | 75 | 215 | 4.0 | 10.0 | 0.00 | 0.00 | 0.00 | 45 | 1016.6 |
| 20260504210003 | 75 | 209 | 3.0 | 8.0 | 0.00 | 0.00 | 0.00 | 44 | 1016.7 |
| 20260504205003 | 75 | 215 | 5.0 | 12.0 | 0.00 | 0.00 | 0.00 | 45 | 1016.6 |
| 20260504204002 | 75 | 204 | 3.0 | 8.0 | 0.00 | 0.00 | 0.00 | 47 | 1016.8 |
| 20260504203002 | 76 | 203 | 6.0 | 12.0 | 0.00 | 0.00 | 0.00 | 42 | 1016.9 |
| 20260504202002 | 75 | 246 | 6.0 | 9.0 | 0.00 | 0.00 | 0.00 | 44 | 1017.0 |
| 20260504201002 | 74 | 244 | 6.0 | 12.0 | 0.00 | 0.00 | 0.00 | 45 | 1017.1 |
| 20260504200003 | 74 | 167 | 4.0 | 12.0 | 0.00 | 0.00 | 0.00 | 45 | 1017.2 |
| 20260504195002 | 74 | 214 | 6.0 | 9.0 | 0.00 | 0.00 | 0.00 | 45 | 1017.3 |
| 20260504193003 | 74 | 230 | 5.0 | 12.0 | 0.00 | 0.00 | 0.00 | 50 | 1017.4 |
| 20260504192003 | 75 | 208 | 5.0 | 8.0 | 0.00 | 0.00 | 0.00 | 48 | 1017.6 |
| 20260504191002 | 74 | 197 | 3.0 | 12.0 | 0.00 | 0.00 | 0.00 | 50 | 1017.6 |
| 20260504190002 | 74 | 224 | 5.0 | 10.0 | 0.00 | 0.00 | 0.00 | 48 | 1017.7 |
| 20260504185003 | 74 | 219 | 6.0 | 9.0 | 0.00 | 0.00 | 0.00 | 47 | 1017.8 |
| 20260504184003 | 74 | 220 | 4.0 | 8.0 | 0.00 | 0.00 | 0.00 | 49 | 1018.0 |
| 20260504183002 | 74 | 207 | 6.0 | 10.0 | 0.00 | 0.00 | 0.00 | 46 | 1018.1 |
| 20260504182002 | 74 | 202 | 3.0 | 15.0 | 0.00 | 0.00 | 0.00 | 46 | 1018.2 |
| 20260504181002 | 73 | 215 | 5.0 | 12.0 | 0.00 | 0.00 | 0.00 | 47 | 1018.4 |
| 20260504180002 | 73 | 226 | 8.0 | 13.0 | 0.00 | 0.00 | 0.00 | 43 | 1018.5 |
| 20260504175002 | 72 | 218 | 4.0 | 12.0 | 0.00 | 0.00 | 0.00 | 49 | 1018.6 |
| 20260504174002 | 72 | 257 | 5.0 | 8.0 | 0.00 | 0.00 | 0.00 | 47 | 1018.8 |
| 20260504151003 | 65 | 262 | 5.0 | 12.0 | 0.00 | 0.00 | 0.00 | 55 | 1020.4 |
| 20260504141002 | 62 | 277 | 5.0 | 12.0 | 0.00 | 0.00 | 0.00 | 57 | 1020.6 |